Météo par heure à Juliopol

Ce jour, 20 Juin, Dimanche

Heure Température Précipitation Vent Pression Humidité
00:00 +20°C° 0 mm 3 m/s 743 mmHg 84%
01:00 +19°C° 0 mm 3 m/s 743 mmHg 89%
02:00 +19°C° 0 mm 3 m/s 743 mmHg 90%
03:00 +18°C° 0 mm 3 m/s 742 mmHg 92%
04:00 +18°C° 0 mm 3 m/s 742 mmHg 94%
05:00 +20°C° 0 mm 3 m/s 742 mmHg 84%
06:00 +21°C° 0 mm 4 m/s 742 mmHg 75%
07:00 +23°C° 0 mm 5 m/s 743 mmHg 65%
08:00 +25°C° 0 mm 5 m/s 742 mmHg 59%
09:00 +27°C° 0 mm 5 m/s 742 mmHg 53%
10:00 +28°C° 0 mm 5 m/s 742 mmHg 46%
11:00 +29°C° 0 mm 5 m/s 742 mmHg 44%
12:00 +30°C° 0 mm 5 m/s 742 mmHg 43%
13:00 +30°C° 0 mm 5 m/s 742 mmHg 41%
14:00 +30°C° 0 mm 4 m/s 742 mmHg 41%
15:00 +30°C° 0 mm 4 m/s 741 mmHg 42%
16:00 +30°C° 0 mm 4 m/s 741 mmHg 43%
17:00 +29°C° 0 mm 4 m/s 741 mmHg 50%
18:00 +27°C° 0 mm 3 m/s 740 mmHg 58%
19:00 +26°C° 0 mm 3 m/s 740 mmHg 65%
20:00 +24°C° 0 mm 3 m/s 740 mmHg 70%
21:00 +22°C° 0 mm 3 m/s 740 mmHg 74%
22:00 +21°C° 0 mm 2 m/s 740 mmHg 78%
23:00 +20°C° 0 mm 2 m/s 740 mmHg 82%

Demain, 21 Juin, Lundi

Heure Température Précipitation Vent Pression Humidité
00:00 +20°C° 0 mm 3 m/s 740 mmHg 86%
01:00 +20°C° 0 mm 3 m/s 739 mmHg 90%
02:00 +19°C° 0 mm 3 m/s 739 mmHg 90%
03:00 +19°C° 0 mm 3 m/s 739 mmHg 91%
04:00 +19°C° 0 mm 3 m/s 739 mmHg 92%
05:00 +20°C° 0 mm 4 m/s 739 mmHg 86%
06:00 +22°C° 0 mm 4 m/s 739 mmHg 79%
07:00 +23°C° 0 mm 5 m/s 739 mmHg 73%
08:00 +26°C° 0 mm 5 m/s 739 mmHg 67%
09:00 +27°C° 0 mm 5 m/s 739 mmHg 61%
10:00 +29°C° 0 mm 5 m/s 739 mmHg 55%
11:00 +30°C° 0 mm 4 m/s 739 mmHg 52%
12:00 +30°C° 0 mm 3 m/s 739 mmHg 50%
13:00 +31°C° 0 mm 3 m/s 738 mmHg 47%
14:00 +31°C° 0 mm 3 m/s 738 mmHg 48%
15:00 +31°C° 0 mm 3 m/s 738 mmHg 48%
16:00 +31°C° 0 mm 3 m/s 737 mmHg 49%
17:00 +29°C° 0 mm 3 m/s 737 mmHg 56%
18:00 +28°C° 0 mm 3 m/s 737 mmHg 62%
19:00 +27°C° 0 mm 3 m/s 737 mmHg 69%
20:00 +25°C° 0.3 mm 3 m/s 738 mmHg 75%
21:00 +22°C° 0.3 mm 3 m/s 738 mmHg 81%
22:00 +21°C° 0.3 mm 3 m/s 738 mmHg 88%
23:00 +20°C° 0.4 mm 2 m/s 738 mmHg 90%

Après-demain, 22 Juin, Mardi

Heure Température Précipitation Vent Pression Humidité
00:00 +19°C° 0.4 mm 2 m/s 738 mmHg 93%
01:00 +20°C° 0.4 mm 1 m/s 738 mmHg 95%
02:00 +20°C° 0 mm 1 m/s 738 mmHg 95%
03:00 +19°C° 0 mm 2 m/s 738 mmHg 95%
04:00 +19°C° 0 mm 2 m/s 738 mmHg 94%
05:00 +20°C° 0.2 mm 2 m/s 739 mmHg 89%
06:00 +21°C° 0.2 mm 2 m/s 739 mmHg 84%
07:00 +23°C° 0.2 mm 2 m/s 740 mmHg 79%
08:00 +25°C° 0 mm 2 m/s 740 mmHg 73%
09:00 +26°C° 0 mm 2 m/s 740 mmHg 66%
10:00 +28°C° 0 mm 2 m/s 740 mmHg 60%
11:00 +29°C° 0 mm 2 m/s 740 mmHg 57%
12:00 +29°C° 0 mm 2 m/s 740 mmHg 54%
13:00 +30°C° 0 mm 2 m/s 740 mmHg 51%
14:00 +30°C° 0 mm 2 m/s 740 mmHg 51%
15:00 +30°C° 0 mm 2 m/s 740 mmHg 51%
16:00 +31°C° 0 mm 2 m/s 740 mmHg 51%
17:00 +29°C° 0.2 mm 2 m/s 740 mmHg 60%
18:00 +27°C° 0.2 mm 2 m/s 740 mmHg 69%
19:00 +25°C° 0.2 mm 2 m/s 740 mmHg 78%
20:00 +24°C° 0.4 mm 2 m/s 740 mmHg 81%
21:00 +23°C° 0.4 mm 2 m/s 741 mmHg 84%
22:00 +20°C° 0.4 mm 2 m/s 741 mmHg 87%
23:00 +20°C° 0 mm 2 m/s 741 mmHg 87%

23 Juin, Mercredi

Heure Température Précipitation Vent Pression Humidité
00:00 +20°C° 0 mm 2 m/s 740 mmHg 88%
01:00 +21°C° 0 mm 1 m/s 740 mmHg 88%
02:00 +19°C° 0 mm 2 m/s 740 mmHg 89%
03:00 +19°C° 0 mm 2 m/s 740 mmHg 90%
04:00 +19°C° 0 mm 2 m/s 740 mmHg 91%
05:00 +21°C° 0.1 mm 2 m/s 741 mmHg 85%
06:00 +23°C° 0.1 mm 2 m/s 741 mmHg 80%
07:00 +25°C° 0.1 mm 2 m/s 741 mmHg 74%
08:00 +26°C° 0 mm 2 m/s 741 mmHg 69%
09:00 +28°C° 0 mm 2 m/s 741 mmHg 63%
10:00 +30°C° 0 mm 3 m/s 742 mmHg 58%
11:00 +30°C° 0.1 mm 3 m/s 742 mmHg 56%
12:00 +31°C° 0.1 mm 3 m/s 742 mmHg 54%
13:00 +31°C° 0.1 mm 3 m/s 742 mmHg 53%
14:00 +32°C° 0 mm 4 m/s 742 mmHg 53%
15:00 +32°C° 0 mm 5 m/s 742 mmHg 54%
16:00 +32°C° 0 mm 6 m/s 742 mmHg 54%
17:00 +29°C° 0.1 mm 6 m/s 742 mmHg 60%
18:00 +27°C° 0.1 mm 5 m/s 743 mmHg 67%
19:00 +25°C° 0.1 mm 5 m/s 743 mmHg 73%
20:00 +22°C° 0 mm 5 m/s 744 mmHg 79%
21:00 +21°C° 0 mm 4 m/s 744 mmHg 84%
22:00 +19°C° 0 mm 4 m/s 744 mmHg 89%
23:00 +18°C° 0 mm 3 m/s 745 mmHg 92%

24 Juin, Jeudi

Heure Température Précipitation Vent Pression Humidité
00:00 +18°C° 0 mm 3 m/s 745 mmHg 94%
01:00 +17°C° 0 mm 3 m/s 745 mmHg 96%
02:00 +16°C° 0 mm 2 m/s 745 mmHg 96%
03:00 +16°C° 0 mm 2 m/s 745 mmHg 97%
04:00 +15°C° 0 mm 2 m/s 745 mmHg 97%
05:00 +16°C° 0 mm 2 m/s 745 mmHg 90%
06:00 +18°C° 0 mm 2 m/s 745 mmHg 83%
07:00 +19°C° 0 mm 2 m/s 745 mmHg 75%
08:00 +21°C° 0.1 mm 2 m/s 745 mmHg 71%
09:00 +23°C° 0.1 mm 2 m/s 745 mmHg 67%
10:00 +24°C° 0.1 mm 2 m/s 745 mmHg 64%
11:00 +25°C° 0.2 mm 1 m/s 745 mmHg 64%
12:00 +25°C° 0.2 mm 1 m/s 745 mmHg 64%
13:00 +25°C° 0.2 mm 1 m/s 744 mmHg 65%
14:00 +25°C° 0 mm 2 m/s 744 mmHg 64%
15:00 +26°C° 0 mm 2 m/s 744 mmHg 64%
16:00 +26°C° 0 mm 3 m/s 744 mmHg 64%
17:00 +25°C° 0.5 mm 3 m/s 744 mmHg 71%
18:00 +22°C° 0.5 mm 3 m/s 744 mmHg 78%
19:00 +21°C° 0.5 mm 3 m/s 744 mmHg 86%
20:00 +20°C° 0 mm 3 m/s 744 mmHg 88%
21:00 +19°C° 0 mm 3 m/s 744 mmHg 90%
22:00 +19°C° 0 mm 3 m/s 744 mmHg 91%
23:00 +18°C° 0 mm 3 m/s 744 mmHg 92%

25 Juin, Vendredi

Heure Température Précipitation Vent Pression Humidité
00:00 +18°C° 0 mm 3 m/s 744 mmHg 92%
01:00 +18°C° 0 mm 3 m/s 744 mmHg 92%
02:00 +18°C° 0 mm 2 m/s 744 mmHg 92%
03:00 +17°C° 0 mm 2 m/s 744 mmHg 92%
04:00 +17°C° 0 mm 2 m/s 744 mmHg 92%
05:00 +18°C° 0 mm 2 m/s 744 mmHg 90%
06:00 +18°C° 0 mm 3 m/s 744 mmHg 89%
07:00 +18°C° 0 mm 3 m/s 744 mmHg 87%
08:00 +19°C° 0 mm 3 m/s 745 mmHg 84%
09:00 +19°C° 0 mm 3 m/s 745 mmHg 80%
10:00 +20°C° 0 mm 3 m/s 745 mmHg 77%
11:00 +21°C° 0 mm 3 m/s 745 mmHg 73%
12:00 +21°C° 0 mm 3 m/s 745 mmHg 70%
13:00 +22°C° 0 mm 3 m/s 744 mmHg 66%
14:00 +22°C° 0 mm 3 m/s 744 mmHg 68%
15:00 +22°C° 0 mm 3 m/s 744 mmHg 70%
16:00 +21°C° 0 mm 3 m/s 744 mmHg 71%
17:00 +21°C° 0 mm 3 m/s 744 mmHg 72%
18:00 +21°C° 0 mm 3 m/s 743 mmHg 74%
19:00 +21°C° 0 mm 3 m/s 743 mmHg 75%
20:00 +20°C° 0 mm 3 m/s 743 mmHg 78%
21:00 +19°C° 0 mm 2 m/s 743 mmHg 80%
22:00 +18°C° 0 mm 2 m/s 743 mmHg 83%
23:00 +18°C° 0 mm 2 m/s 743 mmHg 84%
Voir plus

Nous avons besoin de votre consentement

Meteoprog et ses fournisseurs de services peuvent stocker et accéder à des données personnelles telles que des cookies, des identifiants d'appareils ou d'autres technologies similaires sur votre appareil et traiter ces données pour personnaliser le contenu et les publicités, ainsi que pour fournir des fonctionnalités de médias sociaux et analyser le trafic.

  • Stocker et/ou accéder à des informations sur votre appareil

    Des cookies, des identifiants d'appareils ou d'autres informations peuvent être stockés ou accessibles sur votre appareil aux fins indiquées ci-dessus.

  • Annonces et contenus personnalisés, mesure des annonces et des contenus, connaissance de l'audience et développement de produits

    Les annonces et le contenu peuvent être personnalisés en fonction d'un profil. D'autres données peuvent être ajoutées pour mieux personnaliser les annonces et le contenu. Les performances des publicités et du contenu peuvent être mesurées. Il est possible d'obtenir des informations sur le public qui a vu les publicités et le contenu. Ces données peuvent être utilisées pour développer ou améliorer l'expérience de l'utilisateur, les systèmes et les logiciels.

En cliquant sur "J'accepte", vous autorisez l'utilisation de cookies, des identifiants d'appareils, des balises web ou d'autres technologies similaires. Vos paramètres peuvent être modifiés dans le navigateur de votre appareil.

Dans certains cas, des intérêts légitimes peuvent être invoqués plutôt qu'un consentement. Vous pouvez en savoir plus à ce sujet dans notre Politique de confidentialité et de cookies.